Regional Weather Roundup
Issued by NWS

Home | Current Version | Previous Version | Graphics & Text | Print | Product List | Glossary On
Versions: 1 2 3 4 5 6 7 8 9 10 11 12 13 14 15 16 17 18 19 20 21 22 23 24 25 26 27 28 29 30 31 32 33 34 35 36 37 38 39 40 41 42 43 44 45 46 47 48 49 50
000
ASUS43 KDTX 080801
RWRMI
MICHIGAN HOURLY REGIONAL WEATHER ROUNDUP
NATIONAL WEATHER SERVICE DETROIT/PONTIAC MI
300 AM EST MON FEB 08 2016

NOTE: "FAIR" INDICATES FEW OR NO CLOUDS BELOW 12,000 FEET WITH NO
SIGNIFICANT WEATHER AND/OR OBSTRUCTION TO VISIBILITY.

MIZ047>049-052>055-059>063-066>070-074>076-081>083-080900-
SOUTHEAST LOWER MICHIGAN

CITY           SKY/WX    TMP DP  RH WIND       PRES   REMARKS
ADRIAN         CLOUDY    35  30  82 W6        29.67F WCI  30
ALMA           PTCLDY    32  32  99 SW8       29.63F WCI  25
ANN ARBOR      CLOUDY    36  31  82 SW7       29.65F WCI  30
BAD AXE        CLOUDY    37  32  84 SW3       29.64S
CARO           CLOUDY    37  32  81 CALM      29.63F
DETROIT CITY   CLOUDY    42  31  64 SW6       29.66F
DETROIT        CLOUDY    40  32  73 SW7       29.67S
FLINT          CLOUDY    40  31  70 SW5       29.64F
GROSSE ILE     CLOUDY    39  34  81 SW3       29.65F
HILLSDALE      CLOUDY    33  31  90 W5        29.65S WCI  29
HOWELL         CLOUDY    36  32  85 SW6       29.64S WCI  31

CITY           SKY/WX    TMP DP  RH WIND       PRES   REMARKS
JACKSON        CLOUDY    33  28  81 W7        29.64F WCI  27
LAMBERTVILLE   CLOUDY    39  32  77 W5        29.67F
LANSING        CLEAR     30  26  85 S7        29.65S WCI  23
LAPEER         CLOUDY    38  32  78 CALM      29.63F
MASON          PTCLDY    32  30  91 CALM      29.65S
MONROE         CLOUDY    38  32  78 W7        29.66S WCI  33
MT. CLEMENS    CLOUDY    37  33  84 S5        29.64F WCI  33
PONTIAC        CLOUDY    39  31  72 SW5       29.63F
PORT HOPE        N/A     36  31  82 SW3       29.62F
PORT HURON     CLOUDY    37  32  81 S3        29.66S
TRI CITIES     CLOUDY    37  31  78 S6        29.63F WCI  32
MIDLAND        FAIR      34  30  85 CALM      29.62S
TROY           CLOUDY    42  32  68 SW3       29.66F
SAGINAW HB     CLOUDY    36  34  93 SW6       29.62F WCI  31
$$
MIZ043>046-050>051-056>058-064>065-071>073-077>080-080900-
SOUTHWEST LOWER MICHIGAN

CITY           SKY/WX    TMP DP  RH WIND       PRES   REMARKS
BATTLE CREEK   PTCLDY    30  26  85 SW5       29.65F WCI  25
BENTON HARBOR  PTCLDY    29  25  85 SW6       29.65F WCI  23
BIG RAPIDS     CLOUDY    34  31  90 CALM      29.59F
COLDWATER      PTCLDY    32  31  94 SW5       29.64F WCI  28
FREMONT        FAIR      31  30  95 S3        29.61S
HOLLAND        CLEAR     32  28  85 SW6       29.64F WCI  26
GRAND RAPIDS   CLEAR     32  28  85 SW8       29.63F WCI  25
IONIA          FAIR      31  29  91 SW6       29.63R WCI  25
KALAMAZOO      PTCLDY    31  26  82 SW5       29.64F WCI  26
LUDINGTON      CLEAR     32  29  90 SW5       29.59S WCI  27
MARSHALL       PTCLDY    32  29  88 CALM      29.64F
MOUNT PLEASANT MOCLDY    33  30  89 SW3       29.61S
MUSKEGON       CLEAR     35  28  75 SW6       29.62F WCI  30
SOUTH HAVEN    CLEAR     34  31  87 W6        29.64F WCI  29
$$
MIZ016>042-080900-
NORTHERN LOWER MICHIGAN

CITY           SKY/WX    TMP DP  RH WIND       PRES   REMARKS
ALPENA         CLOUDY    32  29  88 SE3       29.61S
BEAVER ISLAND  CLOUDY    33  33  97 CALM      29.56S FOG
BELLAIRE       PTCLDY    31  30  94 CALM      29.59S
CADILLAC       MOCLDY    31  30  95 CALM      29.56F
CHARLEVOIX     CLOUDY    36  32  86 CALM      29.60S
FRANKFORT      MOCLDY    36  32  87 CALM      29.57S
GAYLORD        CLOUDY    31  29  92 CALM      29.57S
GRAYLING       CLEAR     25  24  95 CALM      29.59S FOG
HARBOR SPRINGS CLOUDY    34  32  92 CALM      29.58R
HOUGHTON LAKE  PTCLDY    26  25  96 CALM      29.59S FOG
MANISTEE       CLOUDY    32  27  80 CALM      29.58F
OSCODA         CLOUDY    33  31  94 CALM      29.62S
PELLSTON       CLOUDY    33  31  92 SE3       29.58F
ROGERS CITY    CLOUDY    35  29  80 S6        29.61S WCI  30
TRAVERSE CITY  PTCLDY    34  30  85 S5        29.56F WCI  30
$$
MIZ007>008-015-080900-
EASTERN UPPER MICHIGAN

CITY           SKY/WX    TMP DP  RH WIND       PRES   REMARKS
KINROSS        CLOUDY    34  34 100 SE6       29.58S WCI  29
MACKINAC ISLAN CLOUDY    34  31  90 S6        29.57F WCI  29
NEWBERRY       CLOUDY    33  32  96 SE3       29.55S
S. S. MARIE    CLOUDY    34  32  92 E3        29.58S FOG
$$
MIZ004>006-011>014-085-080900-
CENTRAL UPPER MICHIGAN

CITY           SKY/WX    TMP DP  RH WIND       PRES   REMARKS
MANISTIQUE     CLOUDY    33  32  97 CALM      29.54S
ESCANABA       CLOUDY    32  30  93 CALM      29.53F
MENOMINEE      CLOUDY    34  28  80 SW3       29.54S
SAWYER-GWINN   LGT SNOW  31  31 100 CALM      29.51R
$$
MIZ001>003-009>011-084-080900-
WESTERN UPPER MICHIGAN

CITY           SKY/WX    TMP DP  RH WIND       PRES   REMARKS
IRON MOUNTAIN  CLOUDY    28  25  88 CALM      29.51S FOG
HOUGHTON       FLURRIES  25  21  85 N18G26    29.53R WCI  11
COPPER HARBOR    N/A     28  26  92 NE23      29.57R WCI  14
IRONWOOD       CLOUDY    27  25  93 N14G24    29.55R VSB 3/4 WCI  15
$$

ABBREVIATIONS USED IN REMARKS
   TC - TEMPERATURE IN CELSIUS
  WCI - WIND CHILL INDEX
   HX - HEAT INDEX
  VSB - VISIBILITY




USA.gov is the U.S. government's official web portal to all federal, state and local government web resources and services.